GW2943 Weather Reports


time (UTC)temp
C
wind
direction
speed
KPH
gust
KPH
rain 1hr
cm
rain 24hr
cm
rain mn
cm
humidity
%
barometer
mb
20260503010027 11 159 6.4 14.5 0.00 0.00 0.00 44 1009.6
20260503004527 11 157 9.7 17.7 0.00 0.00 0.00 43 1009.7
20260503003032 11 160 6.4 16.1 0.00 0.00 0.00 43 1009.9
20260503001524 12 163 8.0 16.1 0.00 0.00 0.00 42 1010.0
20260503000029 12 139 16.1 20.9 0.00 0.00 0.00 41 1010.2
20260502234542 12 338 3.2 4.8 0.00 0.00 0.00 40 1010.2
20260502233021 12 304 1.6 4.8 0.00 0.00 0.00 40 1010.5
20260502231526 12 239 3.2 11.3 0.00 0.00 0.00 41 1010.6
20260502230022 12 240 3.2 11.3 0.00 0.00 0.00 41 1010.8
20260502224518 13 192 1.6 6.4 0.00 0.00 0.00 36 1010.9
20260502223033 13 278 0.0 4.8 0.00 0.00 0.00 38 1011.0
20260502221512 13 276 1.6 11.3 0.00 0.00 0.00 41 1011.2
20260502220012 13 291 3.2 6.4 0.00 0.00 0.00 36 1011.3
20260502214509 13 263 4.8 16.1 0.00 0.00 0.00 34 1011.4
20260502213006 13 259 9.7 19.3 0.00 0.00 0.00 35 1011.7
20260502211503 13 254 6.4 17.7 0.00 0.00 0.00 36 1011.9
20260502210001 13 275 8.0 19.3 0.00 0.00 0.00 34 1012.2
20260502204600 13 304 9.7 19.3 0.00 0.00 0.00 32 1012.2
20260502203114 13 265 11.3 20.9 0.00 0.00 0.00 31 1012.5
20260502201553 12 286 4.8 17.7 0.00 0.00 0.00 35 1012.9
20260502200056 12 284 6.4 16.1 0.00 0.00 0.00 34 1013.2
20260502194552 12 266 3.2 14.5 0.00 0.00 0.00 35 1013.4
20260502193049 12 266 9.7 19.3 0.00 0.00 0.00 35 1013.5
20260502191548 12 288 8.0 14.5 0.00 0.00 0.00 34 1013.9
20260502190044 12 244 9.7 16.1 0.00 0.00 0.00 35 1014.3
20260502184540 11 286 8.0 20.9 0.00 0.00 0.00 35 1014.5
20260502183038 11 298 6.4 20.9 0.00 0.00 0.00 38 1014.5
20260502181535 11 246 9.7 19.3 0.00 0.00 0.00 35 1014.7
20260502163033 9 236 4.8 17.7 0.00 0.00 0.00 41 1016.6
20260502161520 8 251 4.8 16.1 0.00 0.00 0.00 42 1016.8
20260502151558 7 259 4.8 11.3 0.00 0.00 0.00 48 1017.4
20260502123020 -2 53 0.0 0.0 0.00 0.00 0.00 92 1018.8
20260502121512 -3 53 0.0 0.0 0.00 0.00 0.00 93 1018.9
20260502114511 -5 53 0.0 0.0 0.00 0.00 0.00 92 1018.9
20260502113010 -5 53 0.0 0.0 0.00 0.00 0.00 92 1018.9
20260502111509 -5 53 0.0 0.0 0.00 0.00 0.00 92 1018.9
20260502110007 -5 53 0.0 0.0 0.00 0.00 0.00 91 1018.9
20260502104513 -5 52 0.0 0.0 0.00 0.00 0.00 92 1019.0
20260502103005 -5 52 0.0 0.0 0.00 0.00 0.00 92 1019.1
20260502101503 -5 52 0.0 0.0 0.00 0.00 0.00 91 1019.0
20260502090104 -4 52 0.0 0.0 0.00 0.00 0.00 91 1019.2
20260502080110 -3 52 0.0 0.0 0.00 0.00 0.00 90 1019.4
20260502070104 -3 52 0.0 0.0 0.00 0.00 0.00 88 1019.8
20260502064551 -3 52 0.0 0.0 0.00 0.00 0.00 88 1019.9
20260502063050 -3 52 0.0 0.0 0.00 0.00 0.00 87 1019.8
20260502061546 -3 52 0.0 0.0 0.00 0.00 0.00 86 1019.8
20260502060050 -3 52 0.0 0.0 0.00 0.00 0.00 85 1019.9
20260502054545 -2 52 0.0 0.0 0.00 0.00 0.00 84 1019.9
20260502053042 -2 52 0.0 0.0 0.00 0.00 0.00 82 1020.0
20260502051551 -2 52 0.0 0.0 0.00 0.00 0.00 81 1020.0
20260502050043 -2 52 0.0 0.0 0.00 0.00 0.00 81 1020.0
20260502044543 -2 52 0.0 0.0 0.00 0.00 0.00 80 1020.0
20260502043041 -2 51 0.0 0.0 0.00 0.00 0.00 80 1020.0
20260502041537 -1 51 0.0 0.0 0.00 0.00 0.00 79 1020.0
20260502040037 -1 51 0.0 0.0 0.00 0.00 0.00 79 1020.2
20260502034537 0 51 0.0 0.0 0.00 0.00 0.00 77 1020.1
20260502033036 0 51 0.0 0.0 0.00 0.00 0.00 76 1020.2
20260502031535 0 51 0.0 0.0 0.00 0.00 0.00 73 1020.1
20260502030039 0 51 0.0 0.0 0.00 0.00 0.00 69 1020.1
20260502024535 1 51 0.0 0.0 0.00 0.00 0.00 69 1020.1
20260502023035 2 51 0.0 0.0 0.00 0.00 0.00 64 1020.0
20260502021536 3 51 0.0 0.0 0.00 0.00 0.00 59 1020.0
20260502020034 3 51 0.0 0.0 0.00 0.00 0.00 56 1019.9
20260502014536 4 51 0.0 0.0 0.00 0.00 0.00 52 1019.8
20260502013034 5 51 0.0 4.8 0.00 0.00 0.00 48 1019.7
20260502011534 5 50 3.2 8.0 0.00 0.00 0.00 51 1019.5